Wind_Speed
42 42 42 42 42 42 43 44 45 45 44 44 45 45 46 47 47 47 47 46 46 46 46 46 46 46 46 47 47 46 46 46 46 46 46 46 46 47
43 42 41 42 43 43 44 45 45 45 45 44 44 44 44 45 45 45 45 45 45 44 44 44 45 45 45 46 46 45 45 44 45 44 44 44 45 45
43 42 43 43 44 44 44 45 45 46 46 45 45 45 45 44 44 44 44 44 43 43 43 43 43 43 43 44 44 44 43 43 43 43 43 44 44 43
44 43 43 43 44 44 44 45 45 45 45 44 44 44 44 43 43 43 43 43 43 42 42 42 42 42 42 42 42 41 41 41 41 42 42 42 42 42
44 44 43 43 44 44 45 45 45 45 44 43 42 43 43 43 43 43 42 41 41 41 42 41 41 41 41 41 41 41 41 41 41 41 41 42 41 41
43 44 43 44 44 44 44 45 45 44 44 43 43 43 43 42 42 42 41 41 40 40 40 40 40 41 41 41 41 40 41 41 41 41 41 40 40 39
42 42 43 43 44 44 44 44 44 43 43 43 42 42 42 42 42 42 41 40 40 39 39 40 40 40 40 40 40 40 40 40 41 40 40 39 39 38
41 41 41 42 43 43 43 43 42 42 42 42 41 41 41 41 41 41 39 39 38 38 38 39 39 38 38 39 39 40 40 40 39 38 38 38 37 36
41 40 40 41 42 42 42 42 41 41 41 41 41 41 40 40 40 39 38 37 36 37 37 37 38 37 38 38 38 38 38 38 37 36 36 36 35 34
40 40 40 41 41 40 40 40 40 40 40 40 40 39 39 39 39 38 36 36 36 36 36 36 37 37 37 37 36 36 36 36 35 35 34 34 33 32
38 38 39 39 40 40 39 39 39 39 39 39 38 38 38 38 37 36 35 35 35 35 36 36 35 35 35 35 35 35 34 34 34 33 33 32 32 31
37 37 37 37 37 37 37 37 36 36 36 36 36 37 36 36 35 35 35 34 35 35 35 35 34 34 33 33 34 33 33 32 31 31 31 31 30 29
35 35 36 36 35 34 34 34 34 34 34 34 35 35 35 35 35 34 34 34 34 34 34 33 33 33 32 31 31 30 30 29 29 29 28 28 28 28
34 34 34 33 32 32 32 32 32 32 32 33 33 33 33 33 33 33 33 33 33 32 32 32 32 31 30 29 27 27 27 27 26 26 26 26 26 27
32 32 32 32 32 32 31 31 31 31 31 31 30 30 30 30 30 30 30 29 29 28 29 29 29 28 27 26 25 24 24 24 25 24 24 24 25 25
31 31 31 32 32 31 30 30 30 29 29 28 28 28 28 28 28 27 26 26 25 25 25 25 25 25 25 24 23 23 23 23 23 23 22 22 23 23
30 30 30 30 29 28 28 28 28 27 26 26 26 26 25 24 24 24 23 23 23 23 23 23 23 23 23 22 22 22 22 22 22 21 20 21 21 21
28 28 27 27 27 26 26 26 26 25 24 24 23 22 21 20 20 21 21 21 21 21 22 22 21 21 21 21 21 21 21 21 20 19 19 19 19 19
25 25 25 25 24 24 24 23 22 22 22 21 20 19 18 18 18 19 19 19 19 19 19 19 19 19 19 19 19 20 19 19 18 18 17 17 17 17
23 23 23 23 22 22 21 20 20 19 19 18 17 17 17 17 17 17 16 16 16 16 16 17 17 17 17 17 17 17 17 17 16 15 15 15 15 15
20 20 20 20 19 19 18 17 17 16 16 15 15 15 15 15 15 15 14 14 14 14 15 15 15 15 15 15 15 15 15 14 14 14 13 13 13 13
18 18 18 17 17 17 16 15 15 15 14 14 13 13 13 13 13 13 12 12 13 13 14 14 14 14 13 13 13 12 13 13 13 13 13 12 12 11
16 16 16 16 15 15 14 14 14 13 13 13 13 12 12 11 11 12 12 12 12 12 13 12 12 12 12 11 12 12 11 12 12 12 12 11 11 10
Wind_Direction
275 276 277 278 278 279 279 279 280 279 279 279 279 279 279 279 279 281 282 282 281 282 282 283 283 283 283 283 282 282 283 283 283 283 283 283 283 283
274 275 276 277 278 278 278 279 280 280 279 279 279 279 279 279 279 281 282 283 283 283 283 283 284 284 284 283 282 282 282 283 283 284 284 284 285 284
274 275 276 277 277 278 279 280 280 280 279 279 278 278 278 280 281 282 283 283 283 283 284 284 284 284 284 283 283 283 283 283 283 283 284 285 286 285
274 275 276 277 277 278 279 280 280 280 279 279 279 278 279 280 281 282 283 284 283 282 283 284 284 284 284 283 283 283 283 282 283 284 285 285 285 285
273 274 275 277 278 278 279 279 279 279 279 279 279 279 280 281 281 282 283 283 283 283 283 283 283 283 284 283 283 283 283 283 283 284 284 285 285 285
273 275 276 276 277 277 278 279 279 279 280 280 279 280 280 281 281 282 282 282 283 284 284 284 283 283 283 283 284 285 284 284 285 284 284 285 285 285
274 275 276 276 276 277 278 279 279 279 280 280 279 279 280 280 281 281 281 281 281 283 284 284 284 284 285 284 285 286 286 286 285 284 284 285 285 285
275 276 276 276 276 277 279 279 279 279 280 280 280 280 281 281 281 281 280 280 280 281 283 284 285 286 286 286 287 287 287 287 285 283 284 285 285 286
275 275 276 277 277 278 279 278 278 279 279 279 280 281 281 281 281 280 280 280 280 281 283 284 285 287 288 289 289 289 288 287 285 284 284 284 284 286
277 277 277 277 278 279 279 279 279 279 279 279 280 281 280 280 280 280 279 279 280 282 283 285 286 288 289 290 290 291 290 289 287 287 285 284 284 285
277 278 279 279 279 280 280 280 278 278 279 279 279 280 280 280 279 279 278 279 280 282 284 286 288 290 290 291 291 291 290 289 288 286 284 283 284 285
277 278 279 279 279 279 280 279 279 279 279 280 280 280 281 281 279 278 278 279 281 282 284 287 289 291 291 290 291 291 290 289 288 287 284 283 284 284
277 278 279 279 279 279 279 279 280 280 280 281 281 282 281 280 279 278 278 279 281 282 284 286 289 291 291 290 290 291 290 289 289 288 286 285 284 283
279 279 278 278 279 280 280 280 281 282 283 283 283 283 283 281 279 278 278 280 282 283 284 286 289 290 291 290 291 292 291 290 289 289 288 286 285 284
281 280 280 280 280 281 281 282 282 283 284 283 284 285 284 283 280 280 280 281 281 283 285 287 288 288 288 289 291 294 292 291 291 290 289 288 288 286
282 281 281 281 282 282 282 283 284 285 284 284 284 285 284 283 282 281 280 279 280 282 285 287 288 288 287 289 291 294 294 294 294 292 290 290 290 289
283 282 282 283 283 283 284 284 285 285 284 285 285 285 285 284 282 280 280 280 280 283 284 288 289 288 289 290 292 293 295 296 297 296 294 293 293 293
284 283 284 284 284 284 284 284 285 285 285 286 287 285 285 284 283 281 282 282 281 283 286 288 289 288 288 290 292 295 296 298 298 297 296 295 295 295
285 285 285 285 284 284 283 284 285 286 286 286 287 285 284 284 285 284 283 284 285 286 288 290 291 291 290 291 294 296 298 299 299 298 298 298 298 299
286 286 286 286 285 283 283 284 287 288 287 286 287 285 284 284 287 288 287 285 286 288 291 294 295 294 294 296 297 299 300 302 302 302 301 301 302 302
288 289 289 287 286 285 284 284 287 288 286 286 288 286 284 285 287 289 290 289 288 290 292 296 298 299 299 299 301 303 303 303 305 306 305 303 303 304
289 290 290 289 288 286 286 286 287 287 286 287 288 288 289 289 288 290 294 296 294 294 295 297 300 303 305 305 306 306 307 307 308 310 310 307 304 303
288 289 290 290 289 287 287 289 289 288 287 286 287 289 289 287 288 292 295 299 299 298 299 299 301 305 308 307 307 308 308 309 310 313 315 314 311 309
Height
5654 5654 5653 5652 5651 5650 5649 5648 5647 5646 5646 5645 5643 5641 5639 5637 5636 5634 5632 5630 5628 5627 5625 5623 5621 5619 5617 5614 5612 5610 5608 5606 5604 5602 5599 5597 5595 5593
5643 5642 5642 5641 5640 5639 5637 5636 5635 5634 5633 5633 5631 5629 5627 5625 5624 5622 5620 5618 5616 5614 5613 5611 5609 5607 5605 5602 5600 5598 5596 5594 5592 5590 5587 5585 5583 5580
5631 5631 5630 5629 5628 5627 5626 5624 5623 5621 5621 5620 5618 5617 5615 5613 5612 5610 5608 5607 5605 5603 5601 5599 5597 5595 5593 5590 5588 5586 5584 5582 5580 5578 5575 5573 5570 5568
5619 5619 5618 5617 5617 5615 5614 5612 5611 5609 5608 5608 5606 5604 5603 5602 5600 5599 5597 5595 5593 5591 5589 5587 5585 5583 5581 5579 5577 5575 5573 5570 5568 5566 5564 5561 5559 5556
5607 5607 5606 5605 5605 5603 5602 5600 5598 5597 5596 5596 5595 5593 5592 5590 5589 5587 5586 5584 5582 5580 5578 5576 5574 5572 5570 5567 5565 5563 5561 5559 5557 5554 5552 5549 5547 5544
5595 5595 5594 5593 5592 5591 5590 5588 5587 5586 5584 5584 5583 5582 5580 5578 5577 5576 5574 5573 5571 5569 5567 5565 5562 5560 5558 5556 5554 5552 5549 5547 5545 5542 5540 5538 5535 5533
5583 5582 5582 5581 5580 5579 5577 5576 5575 5574 5573 5572 5571 5569 5568 5567 5565 5564 5562 5561 5559 5558 5556 5554 5552 5550 5547 5545 5542 5540 5537 5535 5533 5530 5528 5526 5524 5522
5571 5571 5570 5569 5568 5567 5565 5564 5563 5562 5561 5560 5559 5558 5556 5554 5553 5552 5551 5550 5549 5548 5546 5543 5541 5539 5536 5534 5531 5529 5526 5524 5521 5519 5518 5516 5514 5512
5559 5559 5558 5557 5556 5555 5554 5553 5551 5550 5549 5548 5547 5546 5545 5543 5542 5541 5539 5538 5538 5536 5535 5533 5530 5528 5526 5523 5521 5518 5516 5513 5511 5509 5507 5506 5504 5502
5549 5548 5547 5546 5544 5543 5542 5541 5540 5539 5538 5537 5536 5535 5533 5531 5530 5529 5528 5528 5527 5526 5524 5523 5520 5518 5516 5513 5510 5508 5505 5503 5501 5499 5497 5496 5494 5493
5538 5537 5536 5535 5533 5532 5532 5531 5530 5528 5526 5525 5524 5523 5521 5520 5519 5518 5518 5517 5517 5516 5514 5512 5511 5508 5506 5503 5500 5497 5495 5493 5491 5489 5487 5486 5485 5484
5528 5527 5525 5524 5522 5521 5520 5519 5518 5517 5516 5514 5513 5512 5511 5509 5508 5507 5507 5507 5506 5506 5504 5502 5500 5498 5496 5494 5491 5488 5485 5483 5481 5479 5478 5476 5475 5474
5517 5516 5515 5513 5512 5510 5509 5508 5507 5506 5505 5504 5503 5502 5500 5499 5498 5497 5496 5496 5495 5495 5494 5492 5490 5488 5486 5485 5482 5479 5476 5474 5473 5471 5469 5467 5465 5464
5507 5506 5504 5503 5502 5501 5499 5498 5497 5495 5495 5493 5492 5491 5490 5489 5487 5487 5486 5485 5485 5484 5483 5482 5481 5479 5477 5475 5473 5471 5468 5466 5464 5462 5460 5458 5457 5455
5497 5495 5494 5493 5492 5491 5490 5488 5487 5486 5485 5483 5482 5481 5480 5479 5478 5477 5477 5476 5475 5475 5474 5473 5472 5470 5468 5467 5465 5463 5461 5459 5457 5455 5453 5451 5449 5448
5487 5486 5485 5484 5483 5482 5480 5479 5478 5477 5475 5474 5473 5471 5470 5470 5469 5468 5468 5467 5467 5467 5466 5464 5463 5462 5461 5459 5458 5456 5454 5452 5450 5448 5446 5444 5442 5440
5479 5477 5476 5475 5474 5473 5472 5471 5469 5468 5467 5465 5464 5463 5462 5461 5461 5460 5460 5459 5459 5459 5459 5457 5456 5454 5453 5452 5451 5449 5447 5445 5443 5441 5439 5438 5436 5434
5470 5469 5468 5467 5466 5465 5464 5463 5462 5460 5459 5458 5456 5455 5455 5454 5454 5453 5453 5453 5453 5452 5452 5451 5449 5448 5447 5446 5445 5443 5441 5439 5437 5435 5434 5433 5431 5429
5463 5462 5461 5460 5458 5458 5457 5456 5455 5453 5452 5451 5450 5449 5449 5449 5448 5448 5447 5447 5446 5446 5445 5445 5444 5442 5442 5441 5439 5437 5436 5434 5432 5430 5429 5427 5426 5425
5456 5455 5454 5453 5452 5451 5450 5449 5448 5447 5446 5446 5445 5444 5444 5443 5443 5443 5442 5442 5441 5441 5440 5439 5438 5437 5436 5436 5434 5433 5431 5429 5428 5426 5425 5423 5422 5420
5451 5450 5449 5447 5446 5445 5445 5444 5443 5442 5441 5441 5440 5440 5439 5439 5438 5438 5438 5437 5437 5437 5436 5435 5434 5433 5431 5430 5430 5428 5427 5425 5424 5422 5421 5420 5418 5417
5446 5445 5444 5443 5442 5441 5440 5439 5438 5438 5437 5437 5436 5436 5435 5435 5435 5434 5434 5433 5433 5433 5432 5431 5430 5429 5428 5427 5426 5424 5423 5422 5420 5419 5417 5417 5415 5414
5441 5440 5439 5438 5437 5436 5435 5435 5434 5434 5433 5433 5433 5432 5432 5432 5431 5431 5431 5430 5429 5429 5428 5427 5426 5425 5424 5423 5423 5421 5420 5419 5418 5416 5415 5413 5412 5411